Location: Heilwood
(40.6210°N, 78.9150°W)
Time: 04:58:05
(UTC-04:00)

BREEZE-M DEB (TANK) - Visible Passes

Search period start: 29 August 2016 00:00
Search period end: 08 September 2016 00:00
Orbit: 298 x 15886 km, 49.5° (Epoch: 28 August)

Date Brightness Start Highest point End Pass type
(mag) Time Alt. Az. Time Alt. Az. Time Alt. Az.
29 Aug 9.1 19:06:54 10° NW 20:08:25 57° WSW 22:15:02 10° SSW visible
30 Aug 9.1 19:11:04 10° NW 20:12:08 55° WSW 22:17:15 10° SSW visible
31 Aug 9.2 19:15:14 10° NW 20:15:46 53° WSW 22:19:17 10° SSW visible
01 Sep 9.2 19:19:26 10° NW 20:19:19 50° WSW 22:21:06 10° SSW visible
02 Sep 9.3 19:23:37 10° NW 20:22:48 48° WSW 22:22:40 10° SSW visible
03 Sep 9.3 19:27:50 10° NW 20:26:13 46° W 22:23:59 10° SSW visible
04 Sep 9.4 19:32:05 10° NW 20:29:34 43° W 22:25:00 10° SSW visible
05 Sep 9.4 19:36:20 10° NW 20:32:52 41° W 22:25:41 10° SW visible
06 Sep 9.5 19:40:39 10° NW 20:36:06 39° W 22:26:02 10° SW visible
07 Sep 9.6 19:44:59 10° NW 20:39:16 37° W 22:25:59 10° SW visible
